Time,TemperatureF,DewpointF,PressureIn,WindDirection,WindDirectionDegrees,WindSpeedMPH,WindSpeedGustMPH,Humidity,HourlyPrecipIn,Conditions,Clouds,dailyrainin,SoftwareType,DateUTC
2013-02-21 00:00:00,21.7,-0.4,29.38,West,273,8.7,12.3,33,-99.99,,,-99.99,WSDL version 342,2013-02-21 05:00:00,
2013-02-21 00:02:00,21.7,-0.6,29.38,West,267,6.7,12.3,33,-99.99,,,-99.99,WSDL version 342,2013-02-21 05:02:00,
2013-02-21 00:04:00,21.7,-0.5,29.38,West,281,6.8,12.3,33,-99.99,,,-99.99,WSDL version 342,2013-02-21 05:04:00,
2013-02-21 00:09:00,21.6,-0.6,29.35,West,266,4.8,11.0,33,-99.99,,,-99.99,WSDL version 342,2013-02-21 05:09:00,
2013-02-21 00:14:00,21.5,-0.6,29.35,SW,219,4.2,9.6,33,-99.99,,,-99.99,WSDL version 342,2013-02-21 05:14:00,
2013-02-21 00:19:00,21.5,-0.6,29.35,NW,312,5.2,10.3,33,-99.99,,,-99.99,WSDL version 342,2013-02-21 05:19:00,
2013-02-21 00:25:00,21.5,-0.7,29.35,WSW,253,6.9,10.7,33,-99.99,,,-99.99,WSDL version 342,2013-02-21 05:25:00,
2013-02-21 00:30:00,21.5,-0.6,29.35,West,264,4.3,14.5,33,-99.99,,,-99.99,WSDL version 342,2013-02-21 05:30:00,
2013-02-21 00:35:00,21.4,-0.7,29.35,West,267,7.0,14.5,33,-99.99,,,-99.99,WSDL version 342,2013-02-21 05:35:00,
2013-02-21 00:40:00,21.4,-0.7,29.38,WSW,238,4.2,10.5,33,-99.99,,,-99.99,WSDL version 342,2013-02-21 05:40:00,
2013-02-21 00:45:00,21.3,-0.8,29.38,WSW,250,5.5,8.7,33,-99.99,,,-99.99,WSDL version 342,2013-02-21 05:45:00,
2013-02-21 00:50:00,21.2,-0.9,29.38,West,264,7.1,12.8,33,-99.99,,,-99.99,WSDL version 342,2013-02-21 05:50:00,
2013-02-21 00:55:00,21.2,-0.9,29.38,WNW,289,5.0,12.8,33,-99.99,,,-99.99,WSDL version 342,2013-02-21 05:55:00,
2013-02-21 00:59:00,21.2,-0.9,29.38,WSW,251,5.8,8.5,33,-99.99,,,-99.99,WSDL version 342,2013-02-21 05:59:00,
2013-02-21 01:04:00,21.2,-0.9,29.38,West,278,5.5,10.1,33,-99.99,,,-99.99,WSDL version 342,2013-02-21 06:04:00,
2013-02-21 01:09:00,21.2,-0.7,29.35,West,259,4.4,10.1,34,-99.99,,,-99.99,WSDL version 342,2013-02-21 06:09:00,
2013-02-21 01:14:00,21.2,-0.3,29.35,West,264,6.3,7.6,34,-99.99,,,-99.99,WSDL version 342,2013-02-21 06:14:00,
2013-02-21 01:19:00,21.3,-0.5,29.35,SW,231,6.0,10.7,33,-99.99,,,-99.99,WSDL version 342,2013-02-21 06:19:00,
2013-02-21 01:24:00,21.4,-0.7,29.38,WSW,241,3.9,10.7,33,-99.99,,,-99.99,WSDL version 342,2013-02-21 06:24:00,
2013-02-21 01:30:00,21.7,-0.5,29.38,West,260,3.9,7.2,33,-99.99,,,-99.99,WSDL version 342,2013-02-21 06:30:00,
2013-02-21 01:35:00,21.8,-0.4,29.38,WSW,241,4.8,7.8,33,-99.99,,,-99.99,WSDL version 342,2013-02-21 06:35:00,
2013-02-21 01:40:00,21.9,-0.1,29.38,West,273,5.1,8.1,33,-99.99,,,-99.99,WSDL version 342,2013-02-21 06:40:00,
2013-02-21 01:45:00,21.9,-0.3,29.38,West,280,7.3,10.7,33,-99.99,,,-99.99,WSDL version 342,2013-02-21 06:45:00,
2013-02-21 01:50:00,22.0,0.0,29.38,West,278,5.5,10.7,34,-99.99,,,-99.99,WSDL version 342,2013-02-21 06:50:00,
2013-02-21 01:55:00,22.1,0.1,29.38,West,273,6.0,10.1,33,-99.99,,,-99.99,WSDL version 342,2013-02-21 06:55:00,
2013-02-21 02:00:00,22.1,-0.1,29.38,West,276,7.2,12.8,33,-99.99,,,-99.99,WSDL version 342,2013-02-21 07:00:00,
2013-02-21 02:06:00,22.1,-0.1,29.38,West,280,6.5,12.8,33,-99.99,,,-99.99,WSDL version 342,2013-02-21 07:06:00,
2013-02-21 02:11:00,21.9,-0.3,29.38,WSW,257,6.0,11.0,33,-99.99,,,-99.99,WSDL version 342,2013-02-21 07:11:00,
2013-02-21 02:16:00,21.9,-0.3,29.38,WSW,257,7.7,11.9,33,-99.99,,,-99.99,WSDL version 342,2013-02-21 07:16:00,
2013-02-21 02:21:00,21.8,0.3,29.38,West,267,6.0,11.9,34,-99.99,,,-99.99,WSDL version 342,2013-02-21 07:21:00,
2013-02-21 02:26:00,21.7,0.2,29.38,WNW,287,6.8,15.2,34,-99.99,,,-99.99,WSDL version 342,2013-02-21 07:26:00,
2013-02-21 02:31:00,21.7,0.2,29.38,West,281,4.8,15.2,34,-99.99,,,-99.99,WSDL version 342,2013-02-21 07:31:00,
2013-02-21 02:36:00,21.9,0.3,29.38,WSW,255,5.7,10.7,34,-99.99,,,-99.99,WSDL version 342,2013-02-21 07:36:00,
2013-02-21 02:41:00,21.9,0.3,29.38,West,273,4.4,10.3,34,-99.99,,,-99.99,WSDL version 342,2013-02-21 07:41:00,
2013-02-21 02:46:00,22.0,0.4,29.38,SW,233,5.1,8.7,34,-99.99,,,-99.99,WSDL version 342,2013-02-21 07:46:00,
2013-02-21 02:51:00,22.1,0.5,29.38,WSW,254,4.3,15.2,34,-99.99,,,-99.99,WSDL version 342,2013-02-21 07:51:00,
2013-02-21 02:56:00,22.1,0.5,29.38,West,278,3.6,15.2,34,-99.99,,,-99.99,WSDL version 342,2013-02-21 07:56:00,
2013-02-21 03:01:00,22.1,0.5,29.38,West,278,5.8,11.0,34,-99.99,,,-99.99,WSDL version 342,2013-02-21 08:01:00,
2013-02-21 03:07:00,22.1,0.5,29.38,West,276,6.5,11.0,34,-99.99,,,-99.99,WSDL version 342,2013-02-21 08:07:00,
2013-02-21 03:12:00,22.2,0.6,29.38,WNW,283,6.7,11.0,34,-99.99,,,-99.99,WSDL version 342,2013-02-21 08:12:00,
2013-02-21 03:17:00,22.3,0.6,29.38,WSW,254,5.6,13.0,34,-99.99,,,-99.99,WSDL version 342,2013-02-21 08:17:00,
2013-02-21 03:22:00,22.3,0.6,29.38,West,281,6.8,13.2,34,-99.99,,,-99.99,WSDL version 342,2013-02-21 08:22:00,
2013-02-21 03:27:00,22.3,0.9,29.38,West,259,5.5,13.2,35,-99.99,,,-99.99,WSDL version 342,2013-02-21 08:27:00,
2013-02-21 03:32:00,22.3,0.9,29.38,WSW,242,6.6,13.0,34,-99.99,,,-99.99,WSDL version 342,2013-02-21 08:32:00,
2013-02-21 03:37:00,22.2,1.0,29.38,West,259,5.9,13.0,35,-99.99,,,-99.99,WSDL version 342,2013-02-21 08:37:00,
2013-02-21 03:42:00,22.1,1.0,29.38,West,262,5.7,11.0,35,-99.99,,,-99.99,WSDL version 342,2013-02-21 08:42:00,
2013-02-21 03:47:00,22.1,1.0,29.38,West,278,7.2,12.8,35,-99.99,,,-99.99,WSDL version 342,2013-02-21 08:47:00,
2013-02-21 03:52:00,22.1,1.0,29.38,West,273,8.1,12.8,35,-99.99,,,-99.99,WSDL version 342,2013-02-21 08:52:00,
2013-02-21 03:57:00,22.1,1.0,29.38,West,266,7.8,17.7,35,-99.99,,,-99.99,WSDL version 342,2013-02-21 08:57:00,
2013-02-21 04:02:00,22.3,1.2,29.38,West,263,5.6,17.7,35,-99.99,,,-99.99,WSDL version 342,2013-02-21 09:02:00,
2013-02-21 04:07:00,22.3,1.3,29.38,WSW,244,6.1,14.5,35,-99.99,,,-99.99,WSDL version 342,2013-02-21 09:07:00,
2013-02-21 04:12:00,22.3,1.2,29.38,West,273,5.1,14.5,35,-99.99,,,-99.99,WSDL version 342,2013-02-21 09:12:00,
2013-02-21 04:17:00,22.4,0.9,29.38,West,264,8.5,13.0,34,-99.99,,,-99.99,WSDL version 342,2013-02-21 09:17:00,
2013-02-21 04:22:00,22.5,0.8,29.38,West,273,6.3,13.0,34,-99.99,,,-99.99,WSDL version 342,2013-02-21 09:22:00,
2013-02-21 04:27:00,22.5,1.2,29.35,West,260,7.3,12.3,34,-99.99,,,-99.99,WSDL version 342,2013-02-21 09:27:00,
2013-02-21 04:32:00,22.5,0.8,29.35,SW,236,8.3,12.1,34,-99.99,,,-99.99,WSDL version 342,2013-02-21 09:32:00,
2013-02-21 04:37:00,22.5,0.8,29.35,WNW,283,7.5,14.5,34,-99.99,,,-99.99,WSDL version 342,2013-02-21 09:37:00,
2013-02-21 04:42:00,22.5,0.8,29.38,WSW,257,8.6,15.9,34,-99.99,,,-99.99,WSDL version 342,2013-02-21 09:42:00,
2013-02-21 04:47:00,22.5,0.8,29.38,WSW,250,6.0,15.9,34,-99.99,,,-99.99,WSDL version 342,2013-02-21 09:47:00,
2013-02-21 04:52:00,22.5,0.8,29.38,West,270,6.0,12.5,34,-99.99,,,-99.99,WSDL version 342,2013-02-21 09:52:00,
2013-02-21 04:57:00,22.5,0.8,29.38,West,280,5.8,10.3,34,-99.99,,,-99.99,WSDL version 342,2013-02-21 09:57:00,
2013-02-21 05:02:00,22.5,0.8,29.38,WSW,248,7.8,11.2,34,-99.99,,,-99.99,WSDL version 342,2013-02-21 10:02:00,
2013-02-21 05:07:00,22.4,0.7,29.38,West,264,6.9,11.2,34,-99.99,,,-99.99,WSDL version 342,2013-02-21 10:07:00,
2013-02-21 05:12:00,22.3,0.6,29.38,WSW,250,8.3,10.5,34,-99.99,,,-99.99,WSDL version 342,2013-02-21 10:12:00,
2013-02-21 05:17:00,22.3,0.6,29.38,West,259,6.8,13.0,34,-99.99,,,-99.99,WSDL version 342,2013-02-21 10:17:00,
2013-02-21 05:22:00,22.3,0.6,29.38,West,267,6.3,14.5,34,-99.99,,,-99.99,WSDL version 342,2013-02-21 10:22:00,
2013-02-21 05:27:00,22.3,0.6,29.35,WNW,298,8.7,16.1,34,-99.99,,,-99.99,WSDL version 342,2013-02-21 10:27:00,
2013-02-21 05:32:00,22.3,0.6,29.35,WNW,289,6.9,16.1,34,-99.99,,,-99.99,WSDL version 342,2013-02-21 10:32:00,
2013-02-21 05:37:00,22.3,1.1,29.35,West,270,5.1,10.3,35,-99.99,,,-99.99,WSDL version 342,2013-02-21 10:37:00,
2013-02-21 05:42:00,22.4,1.3,29.38,West,276,6.4,13.2,35,-99.99,,,-99.99,WSDL version 342,2013-02-21 10:42:00,
2013-02-21 05:47:00,22.5,0.8,29.38,West,259,8.3,13.2,34,-99.99,,,-99.99,WSDL version 342,2013-02-21 10:47:00,
2013-02-21 05:53:00,22.5,0.8,29.38,West,267,5.3,12.5,34,-99.99,,,-99.99,WSDL version 342,2013-02-21 10:53:00,
2013-02-21 05:58:00,22.6,0.9,29.41,WNW,287,7.1,10.1,34,-99.99,,,-99.99,WSDL version 342,2013-02-21 10:58:00,
2013-02-21 06:03:00,22.6,1.0,29.41,West,276,6.2,10.7,34,-99.99,,,-99.99,WSDL version 342,2013-02-21 11:03:00,
2013-02-21 06:08:00,22.6,1.0,29.38,West,276,4.5,10.7,34,-99.99,,,-99.99,WSDL version 342,2013-02-21 11:08:00,
2013-02-21 06:13:00,22.6,1.0,29.38,WSW,250,4.4,10.5,34,-99.99,,,-99.99,WSDL version 342,2013-02-21 11:13:00,
2013-02-21 06:18:00,22.6,1.0,29.38,West,278,2.8,10.5,34,-99.99,,,-99.99,WSDL version 342,2013-02-21 11:18:00,
2013-02-21 06:23:00,22.6,0.9,29.38,West,267,8.1,14.8,34,-99.99,,,-99.99,WSDL version 342,2013-02-21 11:23:00,
2013-02-21 06:28:00,22.6,1.0,29.38,West,276,8.7,14.8,34,-99.99,,,-99.99,WSDL version 342,2013-02-21 11:28:00,
2013-02-21 06:33:00,22.6,0.7,29.38,West,276,5.1,12.1,33,-99.99,,,-99.99,WSDL version 342,2013-02-21 11:33:00,
2013-02-21 06:38:00,22.6,0.6,29.38,West,281,7.8,13.2,33,-99.99,,,-99.99,WSDL version 342,2013-02-21 11:38:00,
2013-02-21 06:43:00,22.6,0.4,29.38,WNW,287,3.9,13.2,33,-99.99,,,-99.99,WSDL version 342,2013-02-21 11:43:00,
2013-02-21 06:48:00,22.6,0.4,29.38,WNW,293,6.0,13.6,33,-99.99,,,-99.99,WSDL version 342,2013-02-21 11:48:00,
2013-02-21 06:53:00,22.5,0.2,29.41,WNW,293,6.9,13.6,33,-99.99,,,-99.99,WSDL version 342,2013-02-21 11:53:00,
2013-02-21 07:04:00,22.4,0.4,29.41,West,264,4.4,12.5,34,-99.99,,,-99.99,WSDL version 342,2013-02-21 12:04:00,
2013-02-21 07:10:00,22.5,0.4,29.44,WNW,293,5.8,13.6,33,-99.99,,,-99.99,WSDL version 342,2013-02-21 12:10:00,
2013-02-21 07:15:00,22.6,0.3,29.44,West,262,6.4,13.6,33,-99.99,,,-99.99,WSDL version 342,2013-02-21 12:15:00,
2013-02-21 07:20:00,22.6,0.4,29.44,WNW,283,5.8,11.0,33,-99.99,,,-99.99,WSDL version 342,2013-02-21 12:20:00,
2013-02-21 07:25:00,22.8,0.5,29.44,West,281,7.7,11.0,33,-99.99,,,-99.99,WSDL version 342,2013-02-21 12:25:00,
2013-02-21 07:30:00,22.8,0.6,29.44,West,267,4.5,10.3,33,-99.99,,,-99.99,WSDL version 342,2013-02-21 12:30:00,
2013-02-21 07:35:00,23.0,0.7,29.44,WNW,285,5.3,9.4,33,-99.99,,,-99.99,WSDL version 342,2013-02-21 12:35:00,
2013-02-21 07:40:00,23.2,0.9,29.44,WSW,254,4.3,9.4,33,-99.99,,,-99.99,WSDL version 342,2013-02-21 12:40:00,
2013-02-21 07:45:00,23.2,0.9,29.44,West,260,6.3,11.4,33,-99.99,,,-99.99,WSDL version 342,2013-02-21 12:45:00,
2013-02-21 07:50:00,23.4,1.1,29.44,WNW,301,7.2,11.4,33,-99.99,,,-99.99,WSDL version 342,2013-02-21 12:50:00,
2013-02-21 07:55:00,23.5,1.2,29.44,WNW,296,5.7,11.0,33,-99.99,,,-99.99,WSDL version 342,2013-02-21 12:55:00,
2013-02-21 08:00:00,23.5,1.2,29.44,WSW,243,6.1,10.1,33,-99.99,,,-99.99,WSDL version 342,2013-02-21 13:00:00,
2013-02-21 08:05:00,23.7,1.3,29.44,West,273,5.7,10.1,33,-99.99,,,-99.99,WSDL version 342,2013-02-21 13:05:00,
2013-02-21 08:10:00,23.9,1.5,29.41,West,270,4.0,10.5,33,-99.99,,,-99.99,WSDL version 342,2013-02-21 13:10:00,
2013-02-21 08:15:00,23.9,1.5,29.41,West,281,5.9,10.5,33,-99.99,,,-99.99,WSDL version 342,2013-02-21 13:15:00,
2013-02-21 08:20:00,23.9,1.5,29.41,West,276,7.1,12.8,33,-99.99,,,-99.99,WSDL version 342,2013-02-21 13:20:00,
2013-02-21 08:25:00,24.1,1.7,29.44,West,276,6.7,12.8,33,-99.99,,,-99.99,WSDL version 342,2013-02-21 13:25:00,
2013-02-21 08:30:00,24.1,1.3,29.44,West,278,9.2,15.4,32,-99.99,,,-99.99,WSDL version 342,2013-02-21 13:30:00,
2013-02-21 08:35:00,24.1,1.1,29.44,West,267,8.4,15.4,32,-99.99,,,-99.99,WSDL version 342,2013-02-21 13:35:00,
2013-02-21 08:40:00,24.4,1.4,29.44,West,270,6.9,14.8,32,-99.99,,,-99.99,WSDL version 342,2013-02-21 13:40:00,
2013-02-21 08:45:00,24.4,1.4,29.44,West,273,8.5,16.3,32,-99.99,,,-99.99,WSDL version 342,2013-02-21 13:45:00,
2013-02-21 08:50:00,24.6,1.6,29.44,West,264,7.7,22.4,32,-99.99,,,-99.99,WSDL version 342,2013-02-21 13:50:00,
2013-02-21 08:55:00,24.8,1.8,29.44,West,264,8.3,22.4,32,-99.99,,,-99.99,WSDL version 342,2013-02-21 13:55:00,
2013-02-21 09:00:00,24.9,1.9,29.44,WSW,254,7.2,12.1,32,-99.99,,,-99.99,WSDL version 342,2013-02-21 14:00:00,
2013-02-21 09:05:00,25.2,2.1,29.44,WNW,300,4.9,15.4,32,-99.99,,,-99.99,WSDL version 342,2013-02-21 14:05:00,
2013-02-21 09:10:00,25.3,2.0,29.44,West,267,9.5,15.4,31,-99.99,,,-99.99,WSDL version 342,2013-02-21 14:10:00,
2013-02-21 09:15:00,25.3,1.8,29.44,West,267,7.9,12.1,31,-99.99,,,-99.99,WSDL version 342,2013-02-21 14:15:00,
2013-02-21 09:20:00,25.5,2.2,29.44,WNW,290,5.2,12.3,32,-99.99,,,-99.99,WSDL version 342,2013-02-21 14:20:00,
2013-02-21 09:25:00,25.8,2.4,29.44,WNW,285,8.1,12.3,31,-99.99,,,-99.99,WSDL version 342,2013-02-21 14:25:00,
2013-02-21 09:30:00,25.9,2.2,29.44,WNW,293,9.2,12.3,31,-99.99,,,-99.99,WSDL version 342,2013-02-21 14:30:00,
2013-02-21 09:37:00,26.4,2.6,29.44,WNW,296,9.6,13.4,31,-99.99,,,-99.99,WSDL version 342,2013-02-21 14:37:00,
2013-02-21 09:42:00,27.0,3.1,29.41,WNW,293,8.8,14.5,31,-99.99,,,-99.99,WSDL version 342,2013-02-21 14:42:00,
2013-02-21 09:47:00,26.8,1.0,29.41,WSW,257,10.4,14.5,28,-99.99,,,-99.99,WSDL version 342,2013-02-21 14:47:00,
2013-02-21 09:52:00,26.9,1.8,29.41,West,280,10.9,17.9,28,-99.99,,,-99.99,WSDL version 342,2013-02-21 14:52:00,
2013-02-21 09:57:00,28.0,2.0,29.44,WNW,283,6.2,17.9,28,-99.99,,,-99.99,WSDL version 342,2013-02-21 14:57:00,
2013-02-21 10:02:00,28.5,2.6,29.44,West,267,8.8,14.8,28,-99.99,,,-99.99,WSDL version 342,2013-02-21 15:02:00,
2013-02-21 10:07:00,28.5,2.5,29.44,WNW,285,9.3,14.8,28,-99.99,,,-99.99,WSDL version 342,2013-02-21 15:07:00,
2013-02-21 10:12:00,28.9,2.2,29.41,WNW,286,8.7,14.8,28,-99.99,,,-99.99,WSDL version 342,2013-02-21 15:12:00,
2013-02-21 10:18:00,29.2,0.9,29.41,West,266,11.0,13.2,25,-99.99,,,-99.99,WSDL version 342,2013-02-21 15:18:00,
2013-02-21 10:23:00,29.6,1.8,29.41,West,280,7.7,12.8,28,-99.99,,,-99.99,WSDL version 342,2013-02-21 15:23:00,
2013-02-21 10:28:00,29.7,1.4,29.41,WSW,248,8.3,13.0,25,-99.99,,,-99.99,WSDL version 342,2013-02-21 15:28:00,
2013-02-21 10:33:00,29.7,1.4,29.41,WNW,287,11.1,18.6,25,-99.99,,,-99.99,WSDL version 342,2013-02-21 15:33:00,
2013-02-21 10:39:00,29.4,1.2,29.44,West,281,6.9,18.6,25,-99.99,,,-99.99,WSDL version 342,2013-02-21 15:39:00,
2013-02-21 10:44:00,29.9,1.6,29.44,West,273,7.7,14.5,25,-99.99,,,-99.99,WSDL version 342,2013-02-21 15:44:00,
2013-02-21 10:49:00,30.4,2.0,29.44,WNW,285,7.5,13.0,25,-99.99,,,-99.99,WSDL version 342,2013-02-21 15:49:00,
2013-02-21 10:54:00,30.7,2.3,29.47,West,270,10.1,14.3,25,-99.99,,,-99.99,WSDL version 342,2013-02-21 15:54:00,
2013-02-21 10:59:00,30.5,2.1,29.47,WNW,293,9.6,14.3,25,-99.99,,,-99.99,WSDL version 342,2013-02-21 15:59:00,
2013-02-21 11:04:00,30.4,2.1,29.47,West,267,9.2,13.4,25,-99.99,,,-99.99,WSDL version 342,2013-02-21 16:04:00,
2013-02-21 11:09:00,30.4,2.0,29.44,WNW,284,7.5,13.4,25,-99.99,,,-99.99,WSDL version 342,2013-02-21 16:09:00,
2013-02-21 11:14:00,29.8,1.5,29.44,WSW,241,6.6,17.4,25,-99.99,,,-99.99,WSDL version 342,2013-02-21 16:14:00,
2013-02-21 11:19:00,30.5,2.1,29.44,West,273,8.1,17.4,25,-99.99,,,-99.99,WSDL version 342,2013-02-21 16:19:00,
2013-02-21 11:24:00,29.7,1.4,29.44,WSW,257,9.9,16.3,25,-99.99,,,-99.99,WSDL version 342,2013-02-21 16:24:00,
2013-02-21 11:29:00,29.9,1.6,29.44,West,281,8.3,16.3,25,-99.99,,,-99.99,WSDL version 342,2013-02-21 16:29:00,
2013-02-21 11:34:00,30.9,2.5,29.44,West,264,7.7,13.9,25,-99.99,,,-99.99,WSDL version 342,2013-02-21 16:34:00,
2013-02-21 11:39:00,31.6,3.1,-100.00,WSW,251,6.9,13.9,25,-99.99,,,-99.99,WSDL version 342,2013-02-21 16:39:00,
2013-02-21 11:45:00,31.0,2.6,29.44,WSW,251,6.8,14.5,25,-99.99,,,-99.99,WSDL version 342,2013-02-21 16:45:00,
2013-02-21 11:50:00,31.0,2.5,29.44,West,280,8.0,14.5,25,-99.99,,,-99.99,WSDL version 342,2013-02-21 16:50:00,
2013-02-21 11:55:00,30.8,2.4,29.47,West,270,7.0,13.6,25,-99.99,,,-99.99,WSDL version 342,2013-02-21 16:55:00,
2013-02-21 12:00:00,30.2,1.9,29.47,West,264,7.9,13.6,25,-99.99,,,-99.99,WSDL version 342,2013-02-21 17:00:00,
2013-02-21 12:05:00,30.7,2.3,29.47,West,274,6.4,13.2,25,-99.99,,,-99.99,WSDL version 342,2013-02-21 17:05:00,
2013-02-21 12:10:00,31.9,2.2,29.44,WSW,254,6.3,10.5,25,-99.99,,,-99.99,WSDL version 342,2013-02-21 17:10:00,
2013-02-21 12:15:00,32.4,0.4,29.44,SW,233,7.2,16.6,25,-99.99,,,-99.99,WSDL version 342,2013-02-21 17:15:00,
2013-02-21 12:21:00,32.2,0.3,29.44,West,260,7.7,12.1,25,-99.99,,,-99.99,WSDL version 342,2013-02-21 17:21:00,
2013-02-21 12:26:00,31.4,2.9,29.44,WNW,283,9.0,14.8,25,-99.99,,,-99.99,WSDL version 342,2013-02-21 17:26:00,
2013-02-21 12:31:00,32.4,0.4,29.44,WNW,293,8.6,14.8,25,-99.99,,,-99.99,WSDL version 342,2013-02-21 17:31:00,
2013-02-21 12:36:00,32.9,0.9,29.44,West,278,9.6,14.1,25,-99.99,,,-99.99,WSDL version 342,2013-02-21 17:36:00,
2013-02-21 12:41:00,32.9,0.9,29.44,WNW,293,9.5,13.2,25,-99.99,,,-99.99,WSDL version 342,2013-02-21 17:41:00,
2013-02-21 12:46:00,33.3,1.2,29.44,WSW,256,9.1,14.8,25,-99.99,,,-99.99,WSDL version 342,2013-02-21 17:46:00,
2013-02-21 12:51:00,34.0,1.8,29.44,WNW,286,8.3,14.8,25,-99.99,,,-99.99,WSDL version 342,2013-02-21 17:51:00,
2013-02-21 12:56:00,34.3,-0.6,29.41,West,270,7.4,14.8,22,-99.99,,,-99.99,WSDL version 342,2013-02-21 17:56:00,
2013-02-21 13:01:00,34.3,-0.6,29.41,WNW,293,7.9,14.8,22,-99.99,,,-99.99,WSDL version 342,2013-02-21 18:01:00,
2013-02-21 13:06:00,35.0,0.0,29.41,WNW,285,7.3,14.3,22,-99.99,,,-99.99,WSDL version 342,2013-02-21 18:06:00,
2013-02-21 13:11:00,34.8,-0.2,29.41,West,276,7.8,13.6,22,-99.99,,,-99.99,WSDL version 342,2013-02-21 18:11:00,
2013-02-21 13:17:00,34.9,-0.1,29.41,West,276,8.9,13.6,22,-99.99,,,-99.99,WSDL version 342,2013-02-21 18:17:00,
2013-02-21 13:24:00,34.8,-0.2,29.41,West,278,9.8,16.6,22,-99.99,,,-99.99,WSDL version 342,2013-02-21 18:24:00,
2013-02-21 13:29:00,34.5,-0.4,29.41,WNW,284,8.1,17.7,22,-99.99,,,-99.99,WSDL version 342,2013-02-21 18:29:00,
2013-02-21 13:34:00,35.3,0.2,29.41,SW,233,6.4,17.7,22,-99.99,,,-99.99,WSDL version 342,2013-02-21 18:34:00,
2013-02-21 13:39:00,36.4,1.2,29.44,WSW,248,4.3,9.4,22,-99.99,,,-99.99,WSDL version 342,2013-02-21 18:39:00,
2013-02-21 13:44:00,37.5,1.0,29.44,WNW,300,7.0,12.1,21,-99.99,,,-99.99,WSDL version 342,2013-02-21 18:44:00,
2013-02-21 13:49:00,36.3,1.1,29.44,West,281,6.0,12.1,22,-99.99,,,-99.99,WSDL version 342,2013-02-21 18:49:00,
2013-02-21 13:54:00,36.6,1.3,29.44,WNW,284,5.9,12.1,22,-99.99,,,-99.99,WSDL version 342,2013-02-21 18:54:00,
2013-02-21 13:59:00,37.2,1.6,29.44,WSW,257,4.9,11.0,21,-99.99,,,-99.99,WSDL version 342,2013-02-21 18:59:00,
2013-02-21 14:04:00,36.7,1.4,29.44,West,260,8.2,12.8,22,-99.99,,,-99.99,WSDL version 342,2013-02-21 19:04:00,
2013-02-21 14:09:00,36.0,0.8,29.41,West,273,7.2,13.2,22,-99.99,,,-99.99,WSDL version 342,2013-02-21 19:09:00,
2013-02-21 14:14:00,36.1,0.9,29.41,WNW,302,7.9,13.2,22,-99.99,,,-99.99,WSDL version 342,2013-02-21 19:14:00,
2013-02-21 14:19:00,35.9,0.7,29.41,WNW,287,7.1,13.2,22,-99.99,,,-99.99,WSDL version 342,2013-02-21 19:19:00,
2013-02-21 14:24:00,36.3,1.1,29.44,West,266,5.9,13.2,22,-99.99,,,-99.99,WSDL version 342,2013-02-21 19:24:00,
2013-02-21 14:29:00,36.3,1.1,29.44,West,281,9.7,14.8,22,-99.99,,,-99.99,WSDL version 342,2013-02-21 19:29:00,
2013-02-21 14:34:00,36.0,0.8,29.44,West,273,6.0,14.8,22,-99.99,,,-99.99,WSDL version 342,2013-02-21 19:34:00,
2013-02-21 14:39:00,36.1,0.9,29.44,WNW,293,8.3,12.1,22,-99.99,,,-99.99,WSDL version 342,2013-02-21 19:39:00,
2013-02-21 14:44:00,36.1,0.9,29.44,WSW,255,6.4,12.1,22,-99.99,,,-99.99,WSDL version 342,2013-02-21 19:44:00,
2013-02-21 14:50:00,36.5,1.2,29.44,WNW,293,6.6,16.3,22,-99.99,,,-99.99,WSDL version 342,2013-02-21 19:50:00,
2013-02-21 14:55:00,36.1,0.9,29.47,WNW,293,8.9,16.3,22,-99.99,,,-99.99,WSDL version 342,2013-02-21 19:55:00,
2013-02-21 15:00:00,36.0,0.8,29.47,West,280,7.8,15.4,22,-99.99,,,-99.99,WSDL version 342,2013-02-21 20:00:00,
2013-02-21 15:05:00,35.9,0.7,29.47,NW,305,7.0,15.4,22,-99.99,,,-99.99,WSDL version 342,2013-02-21 20:05:00,
2013-02-21 15:10:00,35.4,0.3,29.44,WNW,284,9.4,17.0,22,-99.99,,,-99.99,WSDL version 342,2013-02-21 20:10:00,
2013-02-21 15:15:00,35.2,0.1,29.44,WNW,284,10.3,19.5,22,-99.99,,,-99.99,WSDL version 342,2013-02-21 20:15:00,
2013-02-21 15:20:00,35.2,0.1,29.44,WNW,289,8.7,19.5,22,-99.99,,,-99.99,WSDL version 342,2013-02-21 20:20:00,
2013-02-21 15:25:00,35.2,0.1,29.44,WNW,283,7.5,13.2,22,-99.99,,,-99.99,WSDL version 342,2013-02-21 20:25:00,
2013-02-21 15:30:00,35.2,0.2,29.44,WNW,299,7.5,12.8,22,-99.99,,,-99.99,WSDL version 342,2013-02-21 20:30:00,
2013-02-21 15:35:00,35.4,0.3,29.44,WNW,293,7.7,11.9,22,-99.99,,,-99.99,WSDL version 342,2013-02-21 20:35:00,
2013-02-21 15:40:00,35.2,0.1,29.44,WNW,295,9.3,13.2,22,-99.99,,,-99.99,WSDL version 342,2013-02-21 20:40:00,
2013-02-21 15:45:00,34.9,-0.1,29.44,West,267,9.2,13.2,22,-99.99,,,-99.99,WSDL version 342,2013-02-21 20:45:00,
2013-02-21 15:50:00,34.8,-0.2,29.44,West,270,6.8,13.2,22,-99.99,,,-99.99,WSDL version 342,2013-02-21 20:50:00,
2013-02-21 15:55:00,34.9,-0.1,29.44,West,266,6.5,12.8,22,-99.99,,,-99.99,WSDL version 342,2013-02-21 20:55:00,
2013-02-21 16:00:00,35.0,0.0,29.44,West,273,7.3,12.3,22,-99.99,,,-99.99,WSDL version 342,2013-02-21 21:00:00,
2013-02-21 16:05:00,34.8,-0.2,29.44,West,275,5.7,12.3,22,-99.99,,,-99.99,WSDL version 342,2013-02-21 21:05:00,
2013-02-21 16:10:00,34.3,-0.6,29.47,WNW,290,8.2,11.0,22,-99.99,,,-99.99,WSDL version 342,2013-02-21 21:10:00,
2013-02-21 16:15:00,34.2,-0.8,29.47,WNW,302,6.0,15.4,22,-99.99,,,-99.99,WSDL version 342,2013-02-21 21:15:00,
2013-02-21 16:20:00,34.2,-0.7,29.47,WNW,296,5.7,15.4,22,-99.99,,,-99.99,WSDL version 342,2013-02-21 21:20:00,
2013-02-21 16:25:00,34.6,-0.4,29.47,West,270,6.4,12.8,22,-99.99,,,-99.99,WSDL version 342,2013-02-21 21:25:00,
2013-02-21 16:31:00,35.3,0.2,29.47,NW,315,4.1,8.1,22,-99.99,,,-99.99,WSDL version 342,2013-02-21 21:31:00,
2013-02-21 16:36:00,35.2,0.1,29.47,West,263,4.6,10.7,22,-99.99,,,-99.99,WSDL version 342,2013-02-21 21:36:00,
2013-02-21 16:42:00,34.9,-0.1,29.47,WNW,289,4.4,10.7,22,-99.99,,,-99.99,WSDL version 342,2013-02-21 21:42:00,
2013-02-21 16:47:00,34.5,-0.5,29.47,WNW,289,6.2,8.5,22,-99.99,,,-99.99,WSDL version 342,2013-02-21 21:47:00,
2013-02-21 16:52:00,34.1,-0.8,29.47,West,266,5.7,14.8,22,-99.99,,,-99.99,WSDL version 342,2013-02-21 21:52:00,
2013-02-21 16:57:00,33.8,-1.1,29.47,West,263,6.3,14.8,22,-99.99,,,-99.99,WSDL version 342,2013-02-21 21:57:00,
2013-02-21 17:02:00,33.5,-0.4,29.47,West,276,6.3,12.5,23,-99.99,,,-99.99,WSDL version 342,2013-02-21 22:02:00,
2013-02-21 17:07:00,33.1,-0.7,29.47,WNW,296,6.3,12.5,23,-99.99,,,-99.99,WSDL version 342,2013-02-21 22:07:00,
2013-02-21 17:12:00,32.8,-0.9,29.47,West,270,2.9,11.9,23,-99.99,,,-99.99,WSDL version 342,2013-02-21 22:12:00,
2013-02-21 17:17:00,32.4,-1.3,29.47,West,273,4.0,8.1,23,-99.99,,,-99.99,WSDL version 342,2013-02-21 22:17:00,
2013-02-21 17:22:00,31.8,2.1,29.47,WNW,302,7.0,15.2,25,-99.99,,,-99.99,WSDL version 342,2013-02-21 22:22:00,
2013-02-21 17:27:00,31.4,2.4,29.50,WNW,296,4.7,15.2,25,-99.99,,,-99.99,WSDL version 342,2013-02-21 22:27:00,
2013-02-21 17:32:00,31.0,2.6,29.50,WNW,289,5.2,13.4,25,-99.99,,,-99.99,WSDL version 342,2013-02-21 22:32:00,
2013-02-21 17:38:00,30.5,2.1,29.50,NW,304,7.5,10.7,25,-99.99,,,-99.99,WSDL version 342,2013-02-21 22:38:00,
2013-02-21 17:43:00,30.1,1.7,29.50,West,278,4.8,10.7,25,-99.99,,,-99.99,WSDL version 342,2013-02-21 22:43:00,
2013-02-21 17:48:00,29.8,2.2,29.50,West,281,6.8,9.6,28,-99.99,,,-99.99,WSDL version 342,2013-02-21 22:48:00,
2013-02-21 17:53:00,29.6,3.1,29.50,WSW,248,6.6,10.5,28,-99.99,,,-99.99,WSDL version 342,2013-02-21 22:53:00,
2013-02-21 17:58:00,29.4,3.4,29.50,WNW,285,5.8,11.9,28,-99.99,,,-99.99,WSDL version 342,2013-02-21 22:58:00,
2013-02-21 18:03:00,29.2,3.2,29.50,WNW,298,4.6,11.9,28,-99.99,,,-99.99,WSDL version 342,2013-02-21 23:03:00,
2013-02-21 18:08:00,28.9,2.9,29.50,West,264,6.6,9.8,28,-99.99,,,-99.99,WSDL version 342,2013-02-21 23:08:00,
2013-02-21 18:13:00,28.9,3.2,29.50,NW,305,7.2,10.7,28,-99.99,,,-99.99,WSDL version 342,2013-02-21 23:13:00,
2013-02-21 18:18:00,28.8,3.7,29.50,WNW,298,2.1,10.7,30,-99.99,,,-99.99,WSDL version 342,2013-02-21 23:18:00,
2013-02-21 18:23:00,28.7,4.0,29.50,WNW,295,5.2,12.3,30,-99.99,,,-99.99,WSDL version 342,2013-02-21 23:23:00,
2013-02-21 18:28:00,28.3,4.4,29.50,West,266,6.0,12.3,31,-99.99,,,-99.99,WSDL version 342,2013-02-21 23:28:00,
2013-02-21 18:33:00,28.1,4.2,29.50,WNW,300,7.0,10.1,31,-99.99,,,-99.99,WSDL version 342,2013-02-21 23:33:00,
2013-02-21 18:38:00,27.9,3.9,29.50,WNW,286,6.1,11.0,31,-99.99,,,-99.99,WSDL version 342,2013-02-21 23:38:00,
2013-02-21 18:43:00,27.9,3.9,29.50,WNW,293,7.6,11.0,31,-99.99,,,-99.99,WSDL version 342,2013-02-21 23:43:00,
2013-02-21 18:48:00,27.8,3.9,29.50,WNW,289,6.4,10.5,31,-99.99,,,-99.99,WSDL version 342,2013-02-21 23:48:00,
2013-02-21 18:53:00,27.5,3.6,29.53,WNW,283,3.8,10.7,31,-99.99,,,-99.99,WSDL version 342,2013-02-21 23:53:00,
2013-02-21 18:59:00,27.1,3.3,29.53,WNW,293,6.5,11.9,31,-99.99,,,-99.99,WSDL version 342,2013-02-21 23:59:00,
2013-02-21 19:04:00,27.0,3.2,29.53,WNW,290,5.3,10.5,31,-99.99,,,-99.99,WSDL version 342,2013-02-22 00:04:00,
2013-02-21 19:09:00,26.8,3.0,29.53,West,270,5.2,10.5,31,-99.99,,,-99.99,WSDL version 342,2013-02-22 00:09:00,
2013-02-21 19:14:00,26.6,3.4,29.53,West,278,5.4,8.9,32,-99.99,,,-99.99,WSDL version 342,2013-02-22 00:14:00,
2013-02-21 19:19:00,26.3,3.2,29.53,WNW,283,5.3,10.5,32,-99.99,,,-99.99,WSDL version 342,2013-02-22 00:19:00,
2013-02-21 19:24:00,26.2,3.0,29.59,WNW,285,4.4,10.5,32,-99.99,,,-99.99,WSDL version 342,2013-02-22 00:24:00,
2013-02-21 19:29:00,26.1,2.9,29.59,WNW,286,6.4,9.8,32,-99.99,,,-99.99,WSDL version 342,2013-02-22 00:29:00,
2013-02-21 19:34:00,26.0,2.8,29.59,WNW,284,5.9,9.6,32,-99.99,,,-99.99,WSDL version 342,2013-02-22 00:34:00,
2013-02-21 19:39:00,25.8,2.7,29.56,WNW,293,5.1,9.8,32,-99.99,,,-99.99,WSDL version 342,2013-02-22 00:39:00,
2013-02-21 19:44:00,25.5,2.4,29.56,WNW,293,4.7,9.8,32,-99.99,,,-99.99,WSDL version 342,2013-02-22 00:44:00,
2013-02-21 19:49:00,25.4,2.5,29.56,West,278,5.7,8.5,33,-99.99,,,-99.99,WSDL version 342,2013-02-22 00:49:00,
2013-02-21 19:54:00,25.3,2.9,29.56,WNW,287,7.9,13.2,33,-99.99,,,-99.99,WSDL version 342,2013-02-22 00:54:00,
2013-02-21 19:59:00,25.3,2.9,29.56,West,276,9.3,13.2,33,-99.99,,,-99.99,WSDL version 342,2013-02-22 00:59:00,
2013-02-21 20:04:00,25.3,2.9,29.56,West,270,6.0,12.3,33,-99.99,,,-99.99,WSDL version 342,2013-02-22 01:04:00,
2013-02-21 20:09:00,25.2,3.0,29.56,WNW,283,6.1,10.5,34,-99.99,,,-99.99,WSDL version 342,2013-02-22 01:09:00,
2013-02-21 20:14:00,25.2,2.7,29.56,WNW,293,5.8,12.1,33,-99.99,,,-99.99,WSDL version 342,2013-02-22 01:14:00,
2013-02-21 20:19:00,25.1,2.6,29.56,WNW,290,4.6,12.1,33,-99.99,,,-99.99,WSDL version 342,2013-02-22 01:19:00,
2013-02-21 20:24:00,24.8,2.8,29.59,WNW,286,3.2,11.0,34,-99.99,,,-99.99,WSDL version 342,2013-02-22 01:24:00,
2013-02-21 20:29:00,24.6,2.7,29.59,WNW,290,5.0,6.5,34,-99.99,,,-99.99,WSDL version 342,2013-02-22 01:29:00,
2013-02-21 20:34:00,24.4,2.6,29.59,WNW,286,5.2,8.7,34,-99.99,,,-99.99,WSDL version 342,2013-02-22 01:34:00,
2013-02-21 20:39:00,24.4,2.8,29.59,West,279,6.9,8.7,34,-99.99,,,-99.99,WSDL version 342,2013-02-22 01:39:00,
2013-02-21 20:44:00,24.4,2.8,29.59,WNW,289,6.0,10.5,35,-99.99,,,-99.99,WSDL version 342,2013-02-22 01:44:00,
2013-02-21 20:49:00,24.1,2.8,29.59,WNW,289,7.3,10.5,35,-99.99,,,-99.99,WSDL version 342,2013-02-22 01:49:00,
2013-02-21 20:54:00,24.0,2.8,29.56,WNW,287,6.5,10.5,35,-99.99,,,-99.99,WSDL version 342,2013-02-22 01:54:00,
2013-02-21 20:59:00,23.9,2.7,29.56,WNW,293,6.7,11.0,35,-99.99,,,-99.99,WSDL version 342,2013-02-22 01:59:00,
2013-02-21 21:04:00,23.9,2.5,29.56,WNW,303,7.0,11.0,34,-99.99,,,-99.99,WSDL version 342,2013-02-22 02:04:00,
2013-02-21 21:09:00,23.8,2.6,29.59,WNW,300,6.0,10.3,35,-99.99,,,-99.99,WSDL version 342,2013-02-22 02:09:00,
2013-02-21 21:14:00,23.6,2.4,29.59,WNW,302,6.6,10.1,35,-99.99,,,-99.99,WSDL version 342,2013-02-22 02:14:00,
2013-02-21 21:19:00,23.5,2.4,29.59,WNW,293,7.8,11.9,35,-99.99,,,-99.99,WSDL version 342,2013-02-22 02:19:00,
2013-02-21 21:24:00,23.4,2.2,29.56,WNW,284,8.3,11.9,35,-99.99,,,-99.99,WSDL version 342,2013-02-22 02:24:00,
2013-02-21 21:29:00,23.3,2.3,29.56,WNW,293,8.3,10.7,35,-99.99,,,-99.99,WSDL version 342,2013-02-22 02:29:00,
2013-02-21 21:34:00,23.1,2.1,29.56,West,280,7.7,10.7,36,-99.99,,,-99.99,WSDL version 342,2013-02-22 02:34:00,
2013-02-21 21:39:00,23.0,2.4,29.59,WNW,293,5.7,14.3,36,-99.99,,,-99.99,WSDL version 342,2013-02-22 02:39:00,
2013-02-21 21:44:00,22.8,2.5,29.59,WNW,293,5.2,14.3,37,-99.99,,,-99.99,WSDL version 342,2013-02-22 02:44:00,
2013-02-21 21:49:00,22.6,2.1,29.59,WNW,296,6.0,10.3,36,-99.99,,,-99.99,WSDL version 342,2013-02-22 02:49:00,
2013-02-21 21:54:00,22.6,2.2,29.59,NW,306,6.6,10.5,36,-99.99,,,-99.99,WSDL version 342,2013-02-22 02:54:00,
2013-02-21 21:59:00,22.5,2.4,29.59,West,270,7.0,10.7,37,-99.99,,,-99.99,WSDL version 342,2013-02-22 02:59:00,
2013-02-21 22:04:00,22.3,2.5,29.59,WNW,296,7.4,10.7,37,-99.99,,,-99.99,WSDL version 342,2013-02-22 03:04:00,
2013-02-21 22:09:00,22.3,2.7,29.59,NW,304,6.3,9.6,38,-99.99,,,-99.99,WSDL version 342,2013-02-22 03:09:00,
2013-02-21 22:14:00,22.1,2.6,29.59,West,275,7.7,11.0,38,-99.99,,,-99.99,WSDL version 342,2013-02-22 03:14:00,
2013-02-21 22:19:00,22.1,2.6,29.59,NW,308,6.7,14.3,38,-99.99,,,-99.99,WSDL version 342,2013-02-22 03:19:00,
2013-02-21 22:24:00,21.9,2.6,29.59,NW,304,6.0,14.3,38,-99.99,,,-99.99,WSDL version 342,2013-02-22 03:24:00,
2013-02-21 22:29:00,21.7,2.5,29.59,NW,312,6.3,10.1,38,-99.99,,,-99.99,WSDL version 342,2013-02-22 03:29:00,
2013-02-21 22:34:00,21.7,2.7,29.59,West,280,6.3,10.1,39,-99.99,,,-99.99,WSDL version 342,2013-02-22 03:34:00,
2013-02-21 22:39:00,21.6,3.1,29.59,NW,325,6.2,10.7,40,-99.99,,,-99.99,WSDL version 342,2013-02-22 03:39:00,
2013-02-21 22:44:00,21.6,3.2,29.59,WNW,284,5.6,10.7,41,-99.99,,,-99.99,WSDL version 342,2013-02-22 03:44:00,
2013-02-21 22:49:00,21.4,3.7,29.59,WNW,299,5.1,7.8,42,-99.99,,,-99.99,WSDL version 342,2013-02-22 03:49:00,
2013-02-21 22:54:00,21.2,3.7,29.59,WNW,293,5.3,8.1,42,-99.99,,,-99.99,WSDL version 342,2013-02-22 03:54:00,
2013-02-21 22:59:00,21.2,3.7,29.59,West,267,7.4,9.6,42,-99.99,,,-99.99,WSDL version 342,2013-02-22 03:59:00,
2013-02-21 23:04:00,21.2,3.7,29.59,WNW,298,6.0,9.6,42,-99.99,,,-99.99,WSDL version 342,2013-02-22 04:04:00,
2013-02-21 23:10:00,21.2,3.7,29.59,WNW,287,4.7,11.0,42,-99.99,,,-99.99,WSDL version 342,2013-02-22 04:10:00,
2013-02-21 23:17:00,21.1,3.6,29.59,NW,304,3.6,7.8,42,-99.99,,,-99.99,WSDL version 342,2013-02-22 04:17:00,
2013-02-21 23:22:00,21.0,3.6,29.59,NW,304,4.4,7.4,42,-99.99,,,-99.99,WSDL version 342,2013-02-22 04:22:00,
2013-02-21 23:27:00,20.9,3.5,29.59,West,260,3.5,7.4,42,-99.99,,,-99.99,WSDL version 342,2013-02-22 04:27:00,
2013-02-21 23:33:00,20.8,3.8,29.59,WNW,296,4.8,12.5,43,-99.99,,,-99.99,WSDL version 342,2013-02-22 04:33:00,
2013-02-21 23:39:00,20.8,3.8,29.59,West,267,3.4,12.5,43,-99.99,,,-99.99,WSDL version 342,2013-02-22 04:39:00,
2013-02-21 23:44:00,20.7,3.7,29.59,NW,304,3.1,7.4,43,-99.99,,,-99.99,WSDL version 342,2013-02-22 04:44:00,
2013-02-21 23:49:00,20.7,3.7,29.59,NW,321,4.1,7.4,43,-99.99,,,-99.99,WSDL version 342,2013-02-22 04:49:00,
2013-02-21 23:54:00,20.6,3.6,29.59,NW,326,2.7,7.4,43,-99.99,,,-99.99,WSDL version 342,2013-02-22 04:54:00,
2013-02-21 23:59:00,20.5,3.5,29.59,WNW,287,2.0,4.9,43,-99.99,,,-99.99,WSDL version 342,2013-02-22 04:59:00,